Regional Weather Roundup
Issued by NWS Sioux Falls, SD

Home | Current Version | Previous Version | Text Only | Print | Product List | Glossary On
Versions: 1 2 3 4 5 6 7 8 9 10 11 12 13 14 15 16 17 18 19 20 21 22 23 24 25 26 27 28 29 30 31 32 33 34 35 36 37 38 39 40 41 42 43 44 45 46 47 48 49 50
000
ASUS43 KFSD 181610
RWRFSD

WEATHER ROUNDUP FOR SE SOUTH DAKOTA/SW MINNESOTA/NW IOWA
NATIONAL WEATHER SERVICE SIOUX FALLS SD
1000 AM CST WED JAN 18 2017

NOTE: "FAIR" INDICATES FEW OR NO CLOUDS BELOW 12,000 FEET WITH NO
SIGNIFICANT WEATHER AND OR OBSTRUCTIONS TO VISIBILITY.


SDZ038>040-050-052>070-181700-
SOUTHEAST SOUTH DAKOTA

CITY           SKY/WX    TMP DP  RH WIND       PRES   REMARKS
BROOKINGS      CLOUDY    26  24  92 S7        29.86R WCI  18
CHAMBERLAIN    CLOUDY    29  24  83 CALM      29.84S
HURON          CLOUDY    22  19  89 SE8       29.85S WCI  12
MADISON          N/A     25  25 100 S5          N/A  WCI  19
MITCHELL       SUNNY     26  23  88 S7        29.87S WCI  18
SIOUX FALLS    CLOUDY    29  27  92 S5        29.89F WCI  24
WINNER         FAIR      37  21  52 SW8       29.82S
YANKTON        CLOUDY    34  30  86 CALM      29.89S
$$

MNZ071-072-080-081-089-090-097-098-181700-
SOUTHWEST MINNESOTA

CITY           SKY/WX    TMP DP  RH WIND       PRES   REMARKS
FAIRMONT       CLOUDY    33  28  81 S14       29.93S WCI  23
JACKSON        CLOUDY    32  28  86 SW7       29.90S WCI  26
LUVERNE        CLOUDY    27  25  93 CALM      29.91R
MARSHALL       CLOUDY    33  25  72 VRB5      29.87R WCI  29
MONTEVIDEO     CLOUDY    34  30  86 SW8       29.86S WCI  27
PIPESTONE      CLOUDY    28  27  93 SW6       29.86F WCI  22
REDWOOD FALLS  CLOUDY    30  25  81 S7        29.89R WCI  23
TRACY          CLOUDY    34  29  83 SW18G25   29.85F WCI  23
WINDOM           N/A     32  28  86 SW10      29.88F WCI  24
WORTHINGTON    CLOUDY    33  28  81 SW16      29.89R WCI  23
$$

IAZ001>003-012>014-020>022-031-032-NEZ013-014-SDZ071-181700-
NORTHWEST IOWA

CITY           SKY/WX    TMP DP  RH WIND       PRES   REMARKS
CHEROKEE       SUNNY     33  32  96 S6        29.96R WCI  28
DENISON        SUNNY     34  30  86 S10       29.99S WCI  26
ESTHERVILLE    CLOUDY    30  29  96 S13       29.91F WCI  20
LE MARS        CLOUDY    34  30  86 S9        29.95R WCI  26
ORANGE CITY    CLOUDY    32  30  93 S8        29.92S WCI  25
SHELDON        CLOUDY    32  32 100 S10       29.90S WCI  24
SIOUX CITY     SUNNY     36  31  82 SE7       29.94F
SPENCER        CLOUDY    33  30  88 S14       29.93S WCI  23
STORM LAKE     SUNNY     34  30  86 S12       29.95S WCI  25
$$

ABBREVIATIONS USED IN REMARKS
   TC - TEMPERATURE IN CELSIUS
  WCI - WIND CHILL INDEX
   HX - HEAT INDEX
  VSB - VISIBILITY




USA.gov is the U.S. government's official web portal to all federal, state and local government web resources and services.